Shelbyville, IN

9:18 PM EST on November 22, 2019 (GMT -0500)
Shelbyville Municipal

Weather History for KGEZ - September, 2019

Change the Weather History Date:

Friday, September 6, 2019

  Actual Average Record
Temperature  
Mean Temperature 67 °F 69 °F  
Max Temperature 79 °F 81 °F 93 °F (2015)
Min Temperature 54 °F 57 °F 46 °F (2017)
Degree Days  
Heating Degree Days 0 1  
Month to date heating degree days 0 3  
Since 1 July heating degree days 0 9  
Cooling Degree Days 2 5  
Month to date cooling degree days 33 32  
Year to date cooling degree days 1094 838  
Growing Degree Days 16 (Base 50)    
Moisture  
Dew Point 59 °F    
Average Humidity 78    
Maximum Humidity 93    
Minimum Humidity 62    
Precipitation  
Precipitation 0.00 in 0.11 in 0.02 in (2017)
Month to date precipitation 0.52 0.60  
Year to date precipitation 31.98 30.88  
Sea Level Pressure  
Sea Level Pressure 29.94 in    
Wind  
Wind Speed 7 mph (West)    
Max Wind Speed 17 mph    
Max Gust Speed 25 mph    
Visibility 9 miles    
Events      
T = Trace of Precipitation, MM = Missing Value Source: NWS Daily Summary

Daily Weather History Graph

Daily Weather History Graph

Search for Another Location

Airport or City:

Astronomy

Sep. 06, 2019 Rise Set
Actual Time 7:15 AM EDT 8:06 PM EDT
Civil Twilight 6:48 AM EDT 8:33 PM EDT
Nautical Twilight 6:16 AM EDT 9:06 PM EDT
Astronomical Twilight 5:42 AM EDT 9:39 PM EDT
Moon 3:21 PM EDT (9/6) 12:25 AM EDT (9/6)
Length of Visible Light 13h 45m
Length of Day
12h 50m
First Quarter, 55% of the Moon is Illuminated
Sep 6
First Quarter
Sep 14
Full
Sep 21
Last Quarter
Sep 28
New
Oct 5
First Quarter

Hourly Weather History & Observations

Time (EDT) Temp. Dew Point Humidity Pressure Visibility Wind Dir Wind Speed Gust Speed Precip Events Conditions
12:53 AM 57.0 °F 54.0 °F 89% 30.03 in 10.0 mi Calm Calm - N/A   Clear
1:53 AM 55.9 °F 53.1 °F 90% 30.01 in 10.0 mi ENE 3.5 mph - N/A   Clear
2:53 AM 57.0 °F 54.0 °F 89% 30.00 in 10.0 mi Calm Calm - N/A   Clear
3:53 AM 55.9 °F 54.0 °F 93% 29.99 in 7.0 mi Calm Calm - N/A   Clear
4:53 AM 55.9 °F 53.1 °F 90% 29.99 in 10.0 mi Calm Calm - N/A   Clear
5:24 AM 55.0 °F 53.1 °F 93% 29.98 in 1.8 mi SE 3.5 mph - N/A   Clear
5:33 AM 55.0 °F 52.0 °F 89% 29.98 in 2.5 mi SSE 4.6 mph - N/A   Partly Cloudy
5:41 AM 55.0 °F 52.0 °F 89% 29.98 in 3.0 mi SSE 3.5 mph - N/A   Partly Cloudy
5:53 AM 55.0 °F 53.1 °F 93% 29.97 in 8.0 mi Calm Calm - N/A   Partly Cloudy
6:53 AM 55.9 °F 54.0 °F 93% 29.96 in 10.0 mi Calm Calm - N/A   Clear
7:53 AM 55.9 °F 54.0 °F 93% 29.96 in 5.0 mi ESE 4.6 mph - N/A   Clear
8:53 AM 62.1 °F 57.9 °F 86% 29.96 in 10.0 mi SSE 9.2 mph - N/A   Clear
9:53 AM 66.0 °F 57.9 °F 75% 29.95 in 10.0 mi South 10.4 mph - N/A   Mostly Cloudy
10:53 AM 68.0 °F 60.1 °F 76% 29.94 in 10.0 mi South 9.2 mph - N/A   Overcast
11:20 AM 69.1 °F 61.0 °F 75% 29.94 in 10.0 mi South 9.2 mph - N/A   Overcast
11:53 AM 70.0 °F 61.0 °F 73% 29.92 in 10.0 mi South 9.2 mph - N/A   Overcast
12:12 PM 73.0 °F 62.1 °F 68% 29.92 in 10.0 mi SSW 12.7 mph - N/A   Mostly Cloudy
12:53 PM 75.0 °F 64.0 °F 69% 29.89 in 10.0 mi SW 8.1 mph - N/A   Clear
1:33 PM 77.0 °F 64.9 °F 66% 29.90 in 10.0 mi West 10.4 mph - N/A   Mostly Cloudy
1:53 PM 77.0 °F 64.9 °F 66% 29.88 in 10.0 mi WSW 10.4 mph - N/A   Overcast
2:53 PM 78.1 °F 64.9 °F 64% 29.87 in 10.0 mi WNW 12.7 mph - N/A   Overcast
3:53 PM 77.0 °F 66.0 °F 69% 29.87 in 10.0 mi West 10.4 mph - N/A   Overcast
4:53 PM 78.1 °F 66.9 °F 68% 29.87 in 10.0 mi NW 11.5 mph 18.4 mph N/A   Mostly Cloudy
5:26 PM 78.1 °F 66.9 °F 68% 29.89 in 10.0 mi NW 10.4 mph - N/A   Scattered Clouds
5:53 PM 77.0 °F 66.0 °F 69% 29.88 in 10.0 mi NNW 10.4 mph - N/A   Mostly Cloudy
6:53 PM 75.0 °F 62.1 °F 64% 29.90 in 10.0 mi NW 12.7 mph 21.9 mph N/A   Scattered Clouds
7:53 PM 72.0 °F 64.0 °F 76% 29.92 in 10.0 mi NNW 4.6 mph - N/A   Scattered Clouds
8:53 PM 70.0 °F 63.0 °F 78% 29.93 in 10.0 mi North 8.1 mph - N/A   Mostly Cloudy
9:53 PM 69.1 °F 63.0 °F 81% 29.95 in 10.0 mi North 10.4 mph - N/A   Mostly Cloudy
10:34 PM 66.9 °F 59.0 °F 76% 29.98 in 10.0 mi North 8.1 mph 19.6 mph N/A   Mostly Cloudy
10:43 PM 66.9 °F 59.0 °F 76% 29.98 in 10.0 mi North 11.5 mph 18.4 mph N/A   Mostly Cloudy
10:53 PM 66.0 °F 59.0 °F 78% 29.97 in 10.0 mi North 9.2 mph - N/A   Mostly Cloudy
11:53 PM 63.0 °F 57.9 °F 84% 29.98 in 10.0 mi North 5.8 mph - N/A   Clear